Location: Calvatone
(45.1167°N, 10.4333°E)
Time: 07:03:38
(UTC+00:00)

METEOR M2 - Visible Passes

Search period start: 03 December 2023 00:00
Search period end: 13 December 2023 00:00
Orbit: 819 x 826 km, 98.4° (Epoch: 02 December)

Date Brightness Start Highest point End Pass type
(mag) Time Alt. Az. Time Alt. Az. Time Alt. Az.
03 Dec ? 04:01:00 10° NE 04:04:41 19° E 04:08:20 10° SE visible
03 Dec ? 05:39:58 10° N 05:45:18 64° WNW 05:50:35 10° SSW visible
03 Dec ? 17:05:07 10° SSW 17:09:57 33° W 17:14:49 10° NNW visible
04 Dec ? 03:42:17 10° ENE 03:44:20 12° E 03:46:22 10° ESE visible
04 Dec ? 05:19:51 10° NNE 05:25:15 88° ESE 05:30:37 10° SSW visible
04 Dec ? 16:44:33 10° S 16:49:45 49° W 16:55:00 10° NNW visible
05 Dec ? 04:59:49 10° NNE 05:05:09 60° E 05:10:25 10° S visible
05 Dec ? 16:24:15 10° S 16:29:37 73° WSW 16:35:02 10° NNW visible
06 Dec ? 04:39:55 10° NNE 04:44:59 40° E 04:49:59 10° SSE visible
06 Dec ? 16:04:11 10° SSE 16:09:33 77° ENE 16:14:57 10° N visible
06 Dec ? 17:47:15 10° WSW 17:50:18 15° W 17:53:22 10° NW visible
07 Dec ? 04:20:12 10° NE 04:24:45 27° E 04:29:16 10° SSE visible
07 Dec ? 06:00:00 10° N 06:05:03 43° WNW 06:10:05 10° SW visible
07 Dec ? 17:25:49 10° SW 17:29:58 23° W 17:34:10 10° NW visible
08 Dec ? 04:00:45 10° NE 04:04:27 19° E 04:08:08 10° SE visible
08 Dec ? 05:39:45 10° N 05:45:04 63° WNW 05:50:20 10° SSW visible
08 Dec ? 17:04:54 10° SSW 17:09:43 33° W 17:14:35 10° NNW visible
09 Dec ? 03:42:00 10° ENE 03:44:06 12° E 03:46:10 10° ESE visible
09 Dec ? 05:19:36 10° NNE 05:25:01 89° ESE 05:30:22 10° SSW visible
09 Dec ? 16:44:19 10° S 16:49:31 49° W 16:54:45 10° NNW visible
10 Dec ? 04:59:34 10° NNE 05:04:54 61° E 05:10:11 10° S visible
10 Dec ? 16:24:01 10° S 16:29:23 73° WSW 16:34:47 10° NNW visible
11 Dec ? 04:39:40 10° NNE 04:44:44 41° E 04:49:45 10° SSE visible
11 Dec ? 16:03:56 10° SSE 16:09:18 78° ENE 16:14:42 10° N visible
11 Dec ? 17:47:03 10° WSW 17:50:04 15° W 17:53:06 10° NW visible
12 Dec ? 04:19:56 10° NE 04:24:30 28° E 04:29:02 10° SSE visible
12 Dec ? 05:59:45 10° N 06:04:48 43° WNW 06:09:49 10° SW visible
12 Dec ? 17:25:36 10° SW 17:29:44 22° W 17:33:55 10° NW visible
